Location: Rounton
(54.4000°N, 1.3500°W)
Time: 21:47:27
(UTC+01:00)

YAOGAN 20A - Pass Details

Date: 08 July 2022
Orbit: 891 x 1288 km, 63.4° (Epoch: 18 August)

Event Time Altitude Azimuth Distance (km) Brightness Sun altitude
Rises 23:42:07 0° 311° (NW) 3,817 9.2 -10.9°
Reaches altitude 10° 23:44:39 10° 309° (NW) 2,915 8.4 -11.0°
Maximum altitude 23:51:35 71° 227° (SW) 1,213 5.3 -11.4°
Enters shadow 23:58:28 13° 146° (SSE) 2,936 6.8 -11.7°
